GW3320 Weather Reports


Display with metric or nautical units.
time (UTC)temp
F
wind
direction
speed
MPH
gust
MPH
rain 1hr
in
rain 24hr
in
rain mn
in
humidity
%
barometer
mb
20260504204025 85 19 2.0 8.0 0.00 0.00 0.00 24 1001.6
20260504203526 85 343 2.0 9.0 0.00 0.00 0.00 24 1001.7
20260504203049 85 330 5.0 9.0 0.00 0.00 0.00 24 1001.7
20260504202526 85 304 2.0 5.0 0.00 0.00 0.00 25 1001.7
20260504202024 84 290 0.0 6.0 0.00 0.00 0.00 25 1001.8
20260504201549 84 295 2.0 7.0 0.00 0.00 0.00 25 1001.8
20260504201024 84 259 3.0 7.0 0.00 0.00 0.00 26 1001.8
20260504200525 83 301 0.0 6.0 0.00 0.00 0.00 27 1001.9
20260504200042 83 307 3.0 8.0 0.00 0.00 0.00 27 1001.9
20260504195526 83 321 2.0 8.0 0.00 0.00 0.00 27 1002.1
20260504195027 83 273 3.0 7.0 0.00 0.00 0.00 26 1002.0
20260504194602 83 0 0.0 6.0 0.00 0.00 0.00 25 1002.1
20260504194027 82 0 2.0 7.0 0.00 0.00 0.00 30 1002.2
20260504193525 82 315 3.0 8.0 0.00 0.00 0.00 25 1002.1
20260504193044 83 296 3.0 8.0 0.00 0.00 0.00 28 1002.1
20260504192525 83 347 5.0 9.0 0.00 0.00 0.00 26 1002.1
20260504192029 83 0 3.0 9.0 0.00 0.00 0.00 25 1002.1
20260504191547 84 308 4.0 9.0 0.00 0.00 0.00 27 1002.1
20260504191027 84 0 0.0 4.0 0.00 0.00 0.00 26 1002.1
20260504190525 83 0 2.0 7.0 0.00 0.00 0.00 29 1002.2
20260504190057 83 61 0.0 7.0 0.00 0.00 0.00 27 1002.2
20260504185530 83 58 2.0 10.0 0.00 0.00 0.00 29 1002.2
20260504185031 83 323 1.0 10.0 0.00 0.00 0.00 27 1002.2
20260504184555 83 317 5.0 10.0 0.00 0.00 0.00 26 1002.2
20260504184026 84 11 1.0 6.0 0.00 0.00 0.00 28 1002.2
20260504183530 83 50 2.0 13.0 0.00 0.00 0.00 26 1002.2
20260504183041 83 331 2.0 13.0 0.00 0.00 0.00 27 1002.3
20260504182527 83 312 7.0 13.0 0.00 0.00 0.00 27 1002.3
20260504182026 83 294 2.0 11.0 0.00 0.00 0.00 27 1002.3
20260504181548 84 281 7.0 11.0 0.00 0.00 0.00 23 1002.3
20260504181025 84 346 1.0 11.0 0.00 0.00 0.00 31 1002.2
20260504180525 83 0 2.0 11.0 0.00 0.00 0.00 28 1002.3
20260504180115 83 355 6.0 13.0 0.00 0.00 0.00 28 1002.3
20260504175524 82 345 7.0 13.0 0.00 0.00 0.00 30 1002.4
20260504175025 82 291 1.0 12.0 0.00 0.00 0.00 29 1002.3
20260504174549 82 306 6.0 13.0 0.00 0.00 0.00 26 1002.4
20260504174025 82 336 4.0 14.0 0.00 0.00 0.00 28 1002.4
20260504173526 82 342 6.0 14.0 0.00 0.00 0.00 30 1002.5
20260504173053 82 337 3.0 11.0 0.00 0.00 0.00 30 1002.5
20260504172525 82 324 2.0 11.0 0.00 0.00 0.00 29 1002.6
20260504172027 82 320 2.0 11.0 0.00 0.00 0.00 31 1002.6
20260504171542 81 328 4.0 11.0 0.00 0.00 0.00 29 1002.6
20260504171025 81 313 5.0 13.0 0.00 0.00 0.00 31 1002.7
20260504170525 81 312 7.0 15.0 0.00 0.00 0.00 30 1002.8
20260504151028 70 292 2.0 7.0 0.00 0.00 0.00 50 1003.2
20260504150524 69 290 2.0 7.0 0.00 0.00 0.00 50 1003.1
20260504141031 65 240 2.0 8.0 0.00 0.00 0.00 55 1003.2
20260504140527 65 231 3.0 9.0 0.00 0.00 0.00 53 1003.1
20260504130524 61 210 5.0 10.0 0.00 0.00 0.00 62 1002.7
20260504110528 51 186 5.0 9.0 0.00 0.00 0.00 82 1001.6
20260504100525 46 0 0.0 0.0 0.00 0.00 0.00 86 1002.7
20260504081542 49 0 0.0 2.0 0.00 0.00 0.00 80 1003.8
20260504081028 50 71 0.0 2.0 0.00 0.00 0.00 80 1003.6
20260504080526 50 0 0.0 2.0 0.00 0.00 0.00 80 1003.6
20260504050526 61 0 0.0 1.0 0.00 0.00 0.00 62 1005.7
20260504050113 62 0 0.0 0.0 0.00 0.00 0.00 61 1005.8
20260504045523 62 0 0.0 0.0 0.00 0.00 0.00 60 1005.8
20260504045023 63 0 0.0 1.0 0.00 0.00 0.00 59 1005.9
20260504044541 64 0 0.0 6.0 0.00 0.00 0.00 57 1005.8
20260504044026 64 0 0.0 6.0 0.00 0.00 0.00 57 1005.8
20260504043531 65 61 2.0 6.0 0.00 0.00 0.00 56 1005.7
20260504043044 65 196 0.0 2.0 0.00 0.00 0.00 55 1005.8
20260504042527 65 196 1.0 4.0 0.00 0.00 0.00 55 1005.9
20260504042026 65 0 1.0 4.0 0.00 0.00 0.00 55 1005.9
20260504041541 64 198 0.0 2.0 0.00 0.00 0.00 55 1005.9
20260504041026 65 0 0.0 10.0 0.00 0.00 0.00 55 1005.8
20260504040525 65 0 4.0 10.0 0.00 0.00 0.00 54 1005.9
20260504040042 65 120 4.0 10.0 0.00 0.00 0.00 54 1005.7
20260504035525 65 126 2.0 7.0 0.00 0.00 0.00 54 1005.8
20260504035025 66 135 2.0 12.0 0.00 0.00 0.00 53 1005.9
20260504034550 66 65 3.0 12.0 0.00 0.00 0.00 52 1005.9
20260504034027 67 141 4.0 12.0 0.00 0.00 0.00 51 1005.8
20260504033534 67 99 5.0 17.0 0.00 0.00 0.00 51 1005.9
20260504033045 67 103 7.0 17.0 0.00 0.00 0.00 50 1006.0
20260504032526 67 89 6.0 14.0 0.00 0.00 0.00 50 1006.0
20260504032025 67 92 3.0 11.0 0.00 0.00 0.00 50 1006.2
20260504031603 67 117 2.0 7.0 0.00 0.00 0.00 49 1006.4
20260504031026 67 99 2.0 8.0 0.00 0.00 0.00 49 1006.5
20260504030526 67 86 3.0 8.0 0.00 0.00 0.00 50 1006.6
20260504030045 67 74 1.0 3.0 0.00 0.00 0.00 50 1006.6
20260504025530 68 0 0.0 2.0 0.00 0.00 0.00 49 1006.6
20260504025025 69 0 0.0 7.0 0.00 0.00 0.00 47 1006.6
20260504024546 70 0 0.0 10.0 0.00 0.00 0.00 46 1006.6
20260504024029 70 81 5.0 10.0 0.00 0.00 0.00 44 1006.6
20260504023525 69 92 5.0 9.0 0.00 0.00 0.00 45 1006.6
20260504023049 68 74 4.0 9.0 0.00 0.00 0.00 47 1006.5
20260504022526 67 81 3.0 5.0 0.00 0.00 0.00 49 1006.5
20260504022026 67 69 1.0 2.0 0.00 0.00 0.00 51 1006.4
20260504021545 68 0 1.0 3.0 0.00 0.00 0.00 52 1006.6
20260504021023 68 0 0.0 4.0 0.00 0.00 0.00 51 1006.6
20260504020526 68 69 0.0 4.0 0.00 0.00 0.00 49 1006.7
20260504020042 67 0 2.0 4.0 0.00 0.00 0.00 50 1006.6
20260504015527 68 71 1.0 4.0 0.00 0.00 0.00 53 1006.5
20260504015024 69 70 0.0 4.0 0.00 0.00 0.00 52 1006.8
20260504014545 69 0 0.0 2.0 0.00 0.00 0.00 49 1006.7
20260504014026 69 0 0.0 2.0 0.00 0.00 0.00 48 1006.6
20260504013525 70 74 1.0 2.0 0.00 0.00 0.00 48 1006.6
20260504013041 71 0 0.0 5.0 0.00 0.00 0.00 48 1006.6
20260504012523 71 74 1.0 6.0 0.00 0.00 0.00 46 1006.3
20260504012025 72 74 3.0 7.0 0.00 0.00 0.00 42 1006.1
20260504011550 71 75 4.0 7.0 0.00 0.00 0.00 43 1006.0
20260504011023 71 88 3.0 5.0 0.00 0.00 0.00 44 1005.9
20260504010528 72 90 0.0 8.0 0.00 0.00 0.00 46 1006.0
20260504010047 72 0 1.0 11.0 0.00 0.00 0.00 43 1006.1
20260504005524 73 86 3.0 12.0 0.00 0.00 0.00 43 1005.9
20260504005024 73 86 6.0 12.0 0.00 0.00 0.00 42 1006.0
20260504004546 73 101 7.0 10.0 0.00 0.00 0.00 42 1006.0
20260504004024 73 92 4.0 7.0 0.00 0.00 0.00 42 1006.1
20260504003525 73 93 4.0 7.0 0.00 0.00 0.00 43 1006.3
20260504003046 73 92 4.0 7.0 0.00 0.00 0.00 42 1006.4
20260504002525 73 56 2.0 4.0 0.00 0.00 0.00 42 1006.6
20260504002025 74 55 1.0 4.0 0.00 0.00 0.00 43 1006.7
20260504001556 74 94 2.0 4.0 0.00 0.00 0.00 43 1006.8
20260504001025 74 94 2.0 4.0 0.00 0.00 0.00 40 1006.8
20260504000525 75 95 2.0 4.0 0.00 0.00 0.00 40 1006.8
20260504000040 75 96 1.0 3.0 0.00 0.00 0.00 41 1006.8
20260503235524 76 96 1.0 3.0 0.00 0.00 0.00 43 1006.8
20260503235024 76 0 0.0 2.0 0.00 0.00 0.00 45 1007.0
20260503234547 76 97 0.0 3.0 0.00 0.00 0.00 39 1007.0
20260503234021 77 43 0.0 3.0 0.00 0.00 0.00 39 1007.2
20260503233525 77 43 1.0 3.0 0.00 0.00 0.00 34 1007.2
20260503233043 77 43 1.0 2.0 0.00 0.00 0.00 37 1007.4
20260503232523 78 43 1.0 2.0 0.00 0.00 0.00 33 1007.4
20260503232024 78 80 1.0 2.0 0.00 0.00 0.00 34 1007.6
20260503231550 78 80 0.0 2.0 0.00 0.00 0.00 33 1007.7
20260503231025 78 0 0.0 1.0 0.00 0.00 0.00 35 1007.7
20260503230525 78 80 0.0 2.0 0.00 0.00 0.00 34 1007.7
20260503230043 78 0 0.0 3.0 0.00 0.00 0.00 32 1007.8
20260503225529 78 80 1.0 4.0 0.00 0.00 0.00 34 1007.8
20260503225025 78 80 1.0 4.0 0.00 0.00 0.00 37 1007.6
20260503224545 78 79 2.0 4.0 0.00 0.00 0.00 34 1007.6
20260503224021 78 78 0.0 3.0 0.00 0.00 0.00 35 1007.8
20260503223524 78 84 0.0 2.0 0.00 0.00 0.00 33 1007.8
20260503223042 79 334 0.0 2.0 0.00 0.00 0.00 35 1007.9
20260503222524 79 0 0.0 2.0 0.00 0.00 0.00 34 1008.0
20260503222021 79 334 0.0 2.0 0.00 0.00 0.00 32 1008.0
20260503221544 79 0 0.0 1.0 0.00 0.00 0.00 32 1008.2
20260503221026 79 0 0.0 2.0 0.00 0.00 0.00 31 1008.2
20260503220526 79 0 0.0 3.0 0.00 0.00 0.00 30 1008.1
20260503220047 79 0 1.0 3.0 0.00 0.00 0.00 30 1008.1
20260503215524 79 336 0.0 4.0 0.00 0.00 0.00 31 1008.3
20260503215023 79 0 0.0 4.0 0.00 0.00 0.00 30 1008.4
20260503214551 80 336 1.0 4.0 0.00 0.00 0.00 30 1008.4
20260503214024 79 0 0.0 3.0 0.00 0.00 0.00 30 1008.5
20260503213524 79 0 0.0 2.0 0.00 0.00 0.00 30 1008.5
20260503213103 79 0 0.0 4.0 0.00 0.00 0.00 28 1008.5
20260503212521 79 0 0.0 4.0 0.00 0.00 0.00 28 1008.6
20260503212022 79 323 1.0 4.0 0.00 0.00 0.00 28 1008.7
20260503211557 80 0 1.0 3.0 0.00 0.00 0.00 29 1008.8
20260503211026 80 322 0.0 5.0 0.00 0.00 0.00 30 1008.8
20260503210522 80 0 2.0 8.0 0.00 0.00 0.00 28 1008.8
20260503210047 80 322 3.0 8.0 0.00 0.00 0.00 30 1008.9
20260503205524 81 313 2.0 5.0 0.00 0.00 0.00 31 1009.0
20260503205029 80 263 1.0 3.0 0.00 0.00 0.00 31 1009.2
20260503204600 80 263 1.0 3.0 0.00 0.00 0.00 31 1009.3